| time (UTC) | temp F | wind direction | speed MPH | gust MPH | rain 1hr in | rain 24hr in | rain mn in | humidity % | barometer mb |
| 20260510214554 | 55 | 0 | 0.0 | 0.0 | 0.00 | 0.05 | 0.05 | 90 | 1014.7 |
| 20260510213114 | 55 | 0 | 0.0 | 1.0 | 0.00 | 0.05 | 0.05 | 90 | 1014.9 |
| 20260510211559 | 55 | 0 | 0.0 | 1.0 | 0.00 | 0.05 | 0.05 | 90 | 1014.7 |
| 20260510210053 | 55 | 0 | 0.0 | 2.0 | 0.00 | 0.05 | 0.05 | 90 | 1014.8 |
| 20260510204613 | 55 | 333 | 1.0 | 4.0 | 0.00 | 0.05 | 0.05 | 89 | 1014.9 |
| 20260510203051 | 55 | 345 | 1.0 | 3.0 | 0.00 | 0.05 | 0.05 | 89 | 1015.0 |
| 20260510201552 | 56 | 290 | 1.0 | 2.0 | 0.00 | 0.05 | 0.05 | 89 | 1015.2 |
| 20260510200055 | 56 | 171 | 0.0 | 1.0 | 0.00 | 0.05 | 0.05 | 89 | 1015.0 |
| 20260510194609 | 56 | 0 | 0.0 | 2.0 | 0.00 | 0.05 | 0.05 | 89 | 1015.1 |
| 20260510193055 | 56 | 0 | 0.0 | 1.0 | 0.00 | 0.05 | 0.05 | 88 | 1015.2 |
| 20260510191600 | 57 | 0 | 0.0 | 2.0 | 0.00 | 0.05 | 0.05 | 88 | 1014.9 |
| 20260510190106 | 57 | 0 | 0.0 | 0.0 | 0.00 | 0.05 | 0.05 | 88 | 1014.8 |
| 20260510184605 | 57 | 0 | 0.0 | 1.0 | 0.00 | 0.05 | 0.05 | 88 | 1014.6 |
| 20260510183059 | 57 | 0 | 0.0 | 0.0 | 0.00 | 0.05 | 0.05 | 88 | 1014.4 |
| 20260510181613 | 57 | 0 | 0.0 | 0.0 | 0.00 | 0.05 | 0.05 | 87 | 1014.3 |
| 20260510180056 | 57 | 0 | 0.0 | 1.0 | 0.00 | 0.05 | 0.05 | 87 | 1014.3 |
| 20260510174603 | 57 | 0 | 0.0 | 4.0 | 0.00 | 0.05 | 0.05 | 87 | 1014.2 |
| 20260510173055 | 57 | 59 | 0.0 | 2.0 | 0.00 | 0.05 | 0.05 | 86 | 1014.3 |
| 20260510171619 | 57 | 0 | 0.0 | 2.0 | 0.00 | 0.05 | 0.05 | 86 | 1014.4 |
| 20260510170055 | 57 | 0 | 0.0 | 2.0 | 0.00 | 0.05 | 0.05 | 86 | 1014.4 |
| 20260510164600 | 57 | 264 | 0.0 | 4.0 | 0.00 | 0.04 | 0.04 | 86 | 1014.5 |
| 20260510163057 | 57 | 360 | 1.0 | 5.0 | 0.00 | 0.04 | 0.04 | 85 | 1014.5 |
| 20260510161551 | 58 | 42 | 2.0 | 5.0 | 0.00 | 0.04 | 0.04 | 84 | 1014.5 |
| 20260510160056 | 59 | 340 | 3.0 | 7.0 | 0.00 | 0.04 | 0.04 | 82 | 1014.6 |
| 20260510154610 | 59 | 324 | 3.0 | 8.0 | 0.00 | 0.03 | 0.03 | 80 | 1014.6 |
| 20260510153100 | 60 | 335 | 3.0 | 9.0 | 0.00 | 0.03 | 0.03 | 79 | 1014.7 |
| 20260510151648 | 61 | 265 | 4.0 | 9.0 | 0.00 | 0.03 | 0.03 | 78 | 1014.7 |
| 20260510150055 | 62 | 96 | 0.0 | 2.0 | 0.00 | 0.03 | 0.03 | 79 | 1014.7 |
| 20260510144605 | 62 | 5 | 2.0 | 8.0 | 0.00 | 0.03 | 0.03 | 77 | 1014.7 |
| 20260510143053 | 62 | 36 | 1.0 | 8.0 | 0.00 | 0.03 | 0.03 | 77 | 1014.9 |
| 20260510141552 | 63 | 360 | 0.0 | 3.0 | 0.00 | 0.03 | 0.03 | 75 | 1015.0 |
| 20260510140048 | 63 | 355 | 0.0 | 4.0 | 0.00 | 0.03 | 0.03 | 74 | 1014.9 |
| 20260510134552 | 63 | 0 | 0.0 | 3.0 | 0.00 | 0.03 | 0.03 | 73 | 1015.1 |
| 20260510133052 | 63 | 136 | 1.0 | 5.0 | 0.00 | 0.03 | 0.03 | 76 | 1015.2 |
| 20260510131554 | 61 | 0 | 0.0 | 4.0 | 0.00 | 0.03 | 0.03 | 81 | 1015.3 |
| 20260510130051 | 60 | 329 | 0.0 | 2.0 | 0.00 | 0.03 | 0.03 | 81 | 1015.4 |
| 20260510124555 | 60 | 103 | 0.0 | 3.0 | 0.00 | 0.03 | 0.03 | 83 | 1015.6 |
| 20260510123053 | 60 | 0 | 0.0 | 2.0 | 0.00 | 0.03 | 0.03 | 84 | 1015.8 |
| 20260510121552 | 59 | 0 | 0.0 | 2.0 | 0.00 | 0.03 | 0.03 | 87 | 1015.8 |
| 20260510120051 | 59 | 289 | 1.0 | 4.0 | 0.00 | 0.03 | 0.03 | 86 | 1016.3 |
| 20260510114613 | 59 | 125 | 0.0 | 2.0 | 0.00 | 0.03 | 0.03 | 86 | 1016.3 |
| 20260510113100 | 59 | 0 | 0.0 | 3.0 | 0.00 | 0.03 | 0.03 | 85 | 1016.3 |
| 20260510111555 | 59 | 0 | 0.0 | 3.0 | 0.00 | 0.03 | 0.03 | 85 | 1016.2 |
| 20260510104550 | 59 | 0 | 0.0 | 3.0 | 0.00 | 0.03 | 0.03 | 84 | 1016.2 |
| 20260510103054 | 59 | 90 | 0.0 | 2.0 | 0.00 | 0.03 | 0.03 | 83 | 1016.2 |
| 20260510101603 | 59 | 100 | 0.0 | 3.0 | 0.01 | 0.03 | 0.03 | 85 | 1016.3 |
| 20260510100054 | 58 | 0 | 0.0 | 3.0 | 0.02 | 0.03 | 0.03 | 85 | 1016.3 |
| 20260510094555 | 57 | 0 | 1.0 | 4.0 | 0.02 | 0.02 | 0.02 | 84 | 1016.4 |
| 20260510093055 | 57 | 350 | 1.0 | 3.0 | 0.02 | 0.02 | 0.02 | 82 | 1016.5 |
| 20260510091551 | 58 | 22 | 0.0 | 3.0 | 0.01 | 0.01 | 0.01 | 79 | 1016.8 |
| 20260510090052 | 59 | 0 | 0.0 | 4.0 | 0.00 | 0.00 | 0.00 | 76 | 1016.8 |
| 20260510084610 | 60 | 0 | 1.0 | 4.0 | 0.00 | 0.00 | 0.00 | 73 | 1016.6 |
| 20260510083056 | 60 | 0 | 1.0 | 4.0 | 0.00 | 0.00 | 0.00 | 73 | 1016.6 |
| 20260510081604 | 60 | 0 | 0.0 | 3.0 | 0.00 | 0.00 | 0.00 | 73 | 1016.4 |
| 20260510080100 | 60 | 303 | 0.0 | 4.0 | 0.00 | 0.00 | 0.00 | 75 | 1016.6 |
| 20260510074604 | 59 | 128 | 0.0 | 4.0 | 0.00 | 0.00 | 0.00 | 75 | 1016.6 |
| 20260510073058 | 58 | 0 | 0.0 | 3.0 | 0.00 | 0.00 | 0.00 | 76 | 1016.6 |
| 20260510071556 | 58 | 63 | 0.0 | 2.0 | 0.00 | 0.00 | 0.00 | 80 | 1016.8 |
| 20260510070105 | 57 | 0 | 0.0 | 2.0 | 0.00 | 0.00 | 0.00 | 82 | 1016.6 |
| 20260510064556 | 57 | 0 | 0.0 | 3.0 | 0.00 | 0.00 | 0.00 | 82 | 1016.6 |
| 20260510063053 | 57 | 0 | 0.0 | 1.0 | 0.00 | 0.00 | 0.00 | 83 | 1016.6 |
| 20260510061556 | 56 | 309 | 0.0 | 3.0 | 0.00 | 0.00 | 0.00 | 82 | 1016.6 |
| 20260510060059 | 56 | 0 | 0.0 | 3.0 | 0.00 | 0.00 | 0.00 | 81 | 1016.5 |
| 20260510054555 | 57 | 0 | 0.0 | 2.0 | 0.00 | 0.00 | 0.00 | 80 | 1016.4 |
| 20260510053055 | 57 | 0 | 0.0 | 3.0 | 0.00 | 0.00 | 0.00 | 78 | 1016.3 |
| 20260510051606 | 57 | 0 | 0.0 | 2.0 | 0.00 | 0.00 | 0.00 | 76 | 1016.2 |
| 20260510050106 | 57 | 0 | 0.0 | 6.0 | 0.00 | 0.00 | 0.00 | 74 | 1016.0 |
| 20260510044558 | 56 | 355 | 2.0 | 5.0 | 0.00 | 0.00 | 0.00 | 76 | 1016.2 |
| 20260510043052 | 57 | 329 | 0.0 | 2.0 | 0.00 | 0.00 | 0.00 | 78 | 1016.3 |
| 20260510041600 | 57 | 0 | 0.0 | 4.0 | 0.00 | 0.00 | 0.00 | 80 | 1016.4 |
| 20260510040104 | 58 | 0 | 0.0 | 2.0 | 0.00 | 0.00 | 0.00 | 80 | 1016.5 |
| 20260510034550 | 58 | 0 | 0.0 | 0.0 | 0.00 | 0.00 | 0.00 | 80 | 1016.3 |
| 20260510033100 | 58 | 0 | 0.0 | 1.0 | 0.00 | 0.00 | 0.00 | 81 | 1016.5 |
| 20260510031552 | 58 | 0 | 0.0 | 1.0 | 0.00 | 0.00 | 0.00 | 81 | 1016.5 |
| 20260510024554 | 57 | 0 | 1.0 | 5.0 | 0.00 | 0.00 | 0.00 | 80 | 1017.1 |
| 20260510023056 | 57 | 0 | 0.0 | 4.0 | 0.00 | 0.00 | 0.00 | 79 | 1017.3 |
| 20260510021646 | 57 | 335 | 1.0 | 5.0 | 0.00 | 0.00 | 0.00 | 79 | 1017.4 |
| 20260510020058 | 57 | 249 | 0.0 | 2.0 | 0.00 | 0.00 | 0.00 | 78 | 1017.7 |
| 20260510014600 | 57 | 83 | 0.0 | 0.0 | 0.00 | 0.00 | 0.00 | 77 | 1017.6 |
| 20260510013100 | 57 | 0 | 0.0 | 2.0 | 0.00 | 0.00 | 0.00 | 76 | 1017.7 |
| 20260510011552 | 58 | 0 | 0.0 | 2.0 | 0.00 | 0.00 | 0.00 | 75 | 1017.7 |
| 20260510010059 | 58 | 0 | 0.0 | 2.0 | 0.00 | 0.00 | 0.00 | 74 | 1017.8 |
| 20260510004555 | 58 | 330 | 3.0 | 5.0 | 0.00 | 0.00 | 0.00 | 74 | 1017.6 |
| 20260510003100 | 58 | 315 | 3.0 | 5.0 | 0.00 | 0.00 | 0.00 | 73 | 1018.2 |
| 20260510001550 | 58 | 37 | 2.0 | 4.0 | 0.00 | 0.00 | 0.00 | 74 | 1018.4 |
| 20260510000051 | 58 | 27 | 1.0 | 3.0 | 0.00 | 0.00 | 0.00 | 74 | 1018.6 |
| 20260509234553 | 58 | 0 | 0.0 | 2.0 | 0.00 | 0.00 | 0.00 | 74 | 1018.5 |
| 20260509233052 | 58 | 19 | 1.0 | 3.0 | 0.00 | 0.00 | 0.00 | 74 | 1018.5 |
| 20260509231558 | 58 | 0 | 0.0 | 0.0 | 0.00 | 0.00 | 0.00 | 74 | 1018.5 |
| 20260509230053 | 58 | 0 | 0.0 | 1.0 | 0.00 | 0.00 | 0.00 | 74 | 1018.3 |
| 20260509224552 | 58 | 0 | 0.0 | 3.0 | 0.00 | 0.00 | 0.00 | 74 | 1018.4 |
| 20260509223054 | 58 | 26 | 0.0 | 2.0 | 0.00 | 0.00 | 0.00 | 75 | 1018.4 |
| 20260509221556 | 58 | 26 | 2.0 | 4.0 | 0.00 | 0.00 | 0.00 | 75 | 1018.5 |
| 20260509220053 | 58 | 348 | 1.0 | 4.0 | 0.00 | 0.00 | 0.00 | 75 | 1018.6 |